KB2SKP Weather Reports


Display with metric or nautical units.
time (UTC)temp
F
wind
direction
speed
MPH
gust
MPH
rain 1hr
in
rain 24hr
in
rain mn
in
humidity
%
barometer
mb
20180122102005 48 112 0.0 0.0 0.00 0.00 0.00 68 1020.6
20180122101505 48 135 0.0 1.0 0.00 0.00 0.00 68 1020.6
20180122101006 49 135 0.0 1.0 0.00 0.00 0.00 68 1020.3
20180122100005 49 135 0.0 1.0 0.00 0.00 0.00 68 1020.5
20180122095505 49 135 0.0 1.0 0.00 0.00 0.00 68 1020.3
20180122095005 49 148 0.0 1.0 0.00 0.00 0.00 68 1020.6
20180122094506 49 135 1.0 1.0 0.00 0.00 0.00 68 1020.6
20180122094005 49 135 1.0 1.0 0.00 0.00 0.00 68 1020.6
20180122093505 49 139 1.0 1.0 0.00 0.00 0.00 68 1020.5
20180122093005 49 135 0.0 1.0 0.00 0.00 0.00 68 1020.6
20180122092505 49 135 1.0 1.0 0.00 0.00 0.00 68 1020.6
20180122092004 49 135 0.0 1.0 0.00 0.00 0.00 68 1020.6
20180122091505 49 135 0.0 1.0 0.00 0.00 0.00 68 1020.6
20180122091005 49 154 1.0 1.0 0.00 0.00 0.00 68 1020.6
20180122090005 49 123 0.0 1.0 0.00 0.00 0.00 69 1020.8
20180122085505 49 135 0.0 1.0 0.00 0.00 0.00 69 1020.9
20180122085005 49 135 0.0 1.0 0.00 0.00 0.00 69 1020.9
20180122084505 49 135 0.0 1.0 0.00 0.00 0.00 69 1020.9
20180122084005 48 158 1.0 1.0 0.00 0.00 0.00 69 1020.9
20180122083505 48 136 1.0 1.0 0.00 0.00 0.00 69 1020.9
20180122083005 48 144 1.0 1.0 0.00 0.00 0.00 69 1020.9
20180122082505 48 148 1.0 1.0 0.00 0.00 0.00 69 1021.1
20180122082005 48 135 0.0 0.0 0.00 0.00 0.00 69 1020.9
20180122081504 48 103 0.0 0.0 0.00 0.00 0.00 69 1020.9
20180122081007 48 135 1.0 1.0 0.00 0.00 0.00 69 1020.9
20180122080006 48 135 0.0 0.0 0.00 0.00 0.00 70 1020.9
20180122075504 48 135 0.0 1.0 0.00 0.00 0.00 70 1020.9
20180122075005 47 133 1.0 1.0 0.00 0.00 0.00 70 1020.9
20180122074504 47 151 0.0 1.0 0.00 0.00 0.00 70 1020.9
20180122074005 47 133 0.0 1.0 0.00 0.00 0.00 70 1020.9
20180122073505 47 135 0.0 0.0 0.00 0.00 0.00 70 1020.9
20180122073005 47 112 0.0 0.0 0.00 0.00 0.00 70 1020.9
20180122072505 47 112 0.0 0.0 0.00 0.00 0.00 70 1020.9
20180122072004 47 112 0.0 0.0 0.00 0.00 0.00 69 1020.9
20180122071504 47 112 0.0 0.0 0.00 0.00 0.00 69 1021.1
20180122071005 47 112 0.0 1.0 0.00 0.00 0.00 69 1021.3
20180122070005 48 135 0.0 1.0 0.00 0.00 0.00 69 1021.3
20180122065505 48 135 0.0 0.0 0.00 0.00 0.00 69 1021.3
20180122065005 48 135 0.0 0.0 0.00 0.00 0.00 69 1021.1
20180122064504 48 135 0.0 1.0 0.00 0.00 0.00 69 1021.1
20180122064005 48 129 0.0 0.0 0.00 0.00 0.00 69 1021.3
20180122063504 48 135 0.0 1.0 0.00 0.00 0.00 69 1021.1
20180122063007 48 135 1.0 1.0 0.00 0.00 0.00 69 1021.3
20180122062505 48 224 0.0 1.0 0.00 0.00 0.00 69 1021.3
20180122062005 48 135 0.0 0.0 0.00 0.00 0.00 69 1021.3
20180122061505 48 135 0.0 1.0 0.00 0.00 0.00 69 1021.3
20180122061005 48 135 0.0 1.0 0.00 0.00 0.00 69 1021.3
20180122060004 48 135 0.0 1.0 0.00 0.00 0.00 69 1021.3
20180122055504 48 135 0.0 1.0 0.00 0.00 0.00 69 1021.3
20180122055005 48 135 0.0 0.0 0.00 0.00 0.00 68 1021.3
20180122054504 48 135 0.0 0.0 0.00 0.00 0.00 68 1021.5
20180122054005 48 135 0.0 0.0 0.00 0.00 0.00 68 1021.6
20180122053505 48 135 0.0 0.0 0.00 0.00 0.00 68 1021.6
20180122053005 48 135 0.0 0.0 0.00 0.00 0.00 68 1021.6
20180122052504 48 135 0.0 0.0 0.00 0.00 0.00 68 1021.6
20180122052004 49 135 0.0 0.0 0.00 0.00 0.00 68 1022.0
20180122051504 49 135 0.0 0.0 0.00 0.00 0.00 68 1021.8
20180122051005 49 135 0.0 0.0 0.00 0.00 0.00 68 1022.0
20180122050006 49 135 0.0 0.0 0.00 0.00 0.00 68 1022.0
20180122045504 49 135 0.0 0.0 0.00 0.00 0.00 68 1022.0
20180122045004 49 135 0.0 0.0 0.00 0.00 0.00 68 1022.0
20180122044505 49 135 0.0 1.0 0.00 0.00 0.00 68 1022.0
20180122044004 49 135 0.0 0.0 0.00 0.00 0.00 68 1022.0
20180122043504 49 119 0.0 0.0 0.00 0.00 0.00 68 1022.0
20180122043005 49 135 0.0 1.0 0.00 0.00 0.00 68 1022.0
20180122042504 49 143 0.0 1.0 0.00 0.00 0.00 68 1022.0
20180122042005 49 158 1.0 1.0 0.00 0.00 0.00 67 1022.0
20180122041504 49 112 0.0 0.0 0.00 0.00 0.00 67 1022.0
20180122041005 49 135 1.0 1.0 0.00 0.00 0.00 67 1022.0
20180122040004 49 112 0.0 0.0 0.00 0.00 0.00 67 1022.0
20180122035505 49 115 0.0 0.0 0.00 0.00 0.00 67 1022.0
20180122035004 49 135 0.0 0.0 0.00 0.00 0.00 67 1022.3
20180122034504 49 135 0.0 0.0 0.00 0.00 0.00 67 1022.0
20180122034004 49 158 0.0 1.0 0.00 0.00 0.00 67 1022.0
20180122033505 49 138 0.0 1.0 0.00 0.00 0.00 67 1022.0
20180122033004 49 158 0.0 1.0 0.00 0.00 0.00 67 1021.8
20180122032504 49 151 1.0 1.0 0.00 0.00 0.00 67 1021.6
20180122032005 49 140 0.0 1.0 0.00 0.00 0.00 66 1021.8
20180122031505 50 135 0.0 1.0 0.00 0.00 0.00 66 1022.0
20180122031005 50 135 1.0 2.0 0.00 0.00 0.00 66 1022.0
20180122030004 50 136 1.0 2.0 0.00 0.00 0.00 66 1022.0
20180122025504 50 140 1.0 1.0 0.00 0.00 0.00 66 1022.0
20180122025004 50 135 1.0 1.0 0.00 0.00 0.00 65 1022.0
20180122024505 50 135 1.0 1.0 0.00 0.00 0.00 65 1022.0
20180122024004 50 124 0.0 1.0 0.00 0.00 0.00 65 1022.0
20180122023504 51 135 0.0 1.0 0.00 0.00 0.00 66 1022.0
20180122023005 51 119 1.0 1.0 0.00 0.00 0.00 65 1022.0
20180122022504 51 140 0.0 1.0 0.00 0.00 0.00 65 1022.0
20180122022006 51 141 0.0 1.0 0.00 0.00 0.00 65 1022.0
20180122021506 52 68 1.0 1.0 0.00 0.00 0.00 65 1022.0
20180122021005 52 137 1.0 1.0 0.00 0.00 0.00 65 1022.0
20180122020005 52 18 0.0 2.0 0.00 0.00 0.00 65 1021.6
20180122015504 52 130 2.0 2.0 0.00 0.00 0.00 65 1021.3
20180122015004 52 139 1.0 2.0 0.00 0.00 0.00 65 1021.6
20180122014504 52 149 1.0 2.0 0.00 0.00 0.00 64 1021.9
20180122014004 52 135 1.0 1.0 0.00 0.00 0.00 64 1022.0
20180122013505 52 135 1.0 1.0 0.00 0.00 0.00 64 1022.0
20180122013004 52 137 1.0 2.0 0.00 0.00 0.00 64 1022.0
20180122012505 52 116 1.0 2.0 0.00 0.00 0.00 64 1022.0
20180122012004 52 135 1.0 2.0 0.00 0.00 0.00 64 1022.0
20180122011504 52 124 1.0 2.0 0.00 0.00 0.00 64 1022.0
20180122011005 52 142 1.0 2.0 0.00 0.00 0.00 65 1022.0
20180122010004 52 135 1.0 2.0 0.00 0.00 0.00 65 1022.0
20180122005505 52 116 1.0 1.0 0.00 0.00 0.00 65 1022.0
20180122005004 52 132 1.0 2.0 0.00 0.00 0.00 64 1022.0
20180122004504 52 139 2.0 2.0 0.00 0.00 0.00 64 1022.0
20180122004004 53 152 1.0 2.0 0.00 0.00 0.00 64 1022.0
20180122003505 53 119 1.0 1.0 0.00 0.00 0.00 64 1022.0
20180122003005 53 134 1.0 2.0 0.00 0.00 0.00 64 1021.6
20180122002504 53 121 1.0 2.0 0.00 0.00 0.00 64 1021.6
20180122002005 52 102 1.0 1.0 0.00 0.00 0.00 64 1021.6
20180122001505 53 128 1.0 2.0 0.00 0.00 0.00 64 1021.6
20180122001004 53 93 1.0 3.0 0.00 0.00 0.00 64 1021.8
20180122000005 53 90 1.0 2.0 0.00 0.00 0.00 64 1021.6
20180121235504 53 135 1.0 1.0 0.00 0.00 0.00 64 1021.6
20180121235004 53 114 1.0 2.0 0.00 0.00 0.00 64 1021.6
20180121234504 53 112 1.0 2.0 0.00 0.00 0.00 64 1021.6
20180121234004 53 122 1.0 1.0 0.00 0.00 0.00 64 1021.6
20180121233504 53 135 1.0 1.0 0.00 0.00 0.00 64 1021.8
20180121233005 53 135 0.0 1.0 0.00 0.00 0.00 64 1021.6
20180121232505 53 129 1.0 1.0 0.00 0.00 0.00 63 1021.6
20180121232004 53 117 1.0 2.0 0.00 0.00 0.00 63 1021.6
20180121231504 53 135 0.0 1.0 0.00 0.00 0.00 63 1021.6
20180121231005 53 131 1.0 1.0 0.00 0.00 0.00 63 1021.6
20180121230005 53 112 0.0 1.0 0.00 0.00 0.00 62 1021.6
20180121225505 53 135 1.0 1.0 0.00 0.00 0.00 62 1021.6
20180121225004 53 94 0.0 1.0 0.00 0.00 0.00 61 1021.6
20180121224506 54 111 0.0 0.0 0.00 0.00 0.00 61 1021.6
20180121224006 54 112 0.0 0.0 0.00 0.00 0.00 61 1021.6
20180121223516 54 90 1.0 1.0 0.00 0.00 0.00 61 1021.6
20180121223016 54 105 1.0 2.0 0.00 0.00 0.00 60 1021.3
20180121222505 55 127 0.0 2.0 0.00 0.00 0.00 60 1021.3
20180121222006 32 126 0.0 0.0 0.00 0.00 0.00 84 1022.4